Date String (YYYY-MM-DD hh:mm:ss) UTC,Instrument flags,Ambient pressure (hPa),Sample flow (lpm),Bypass flow (lpm),Sample temperature (°C),Ambient temperature (°C),ASC tube jacket temperature (°C),LED temperature (°C),Box temperature (°C),Sample RH (%),Span deviation,Mass concentration (μg/m³),Mass concentration (μg/m³),Mass concentration (μg/m³)
DateTimeUTC,F1_M11,P_M11,Q1_M11,Q2_M11,T1_M11,T2_M11,T3_M11,T4_M11,T5_M11,U1_M11,ZSPAN_M11,X0_M11,X2_M11,X1_M11
2023-03-12 12:00:00,,0824.2,5.00,0.00,22.5,21.2,00.0,31.3,24.3,12.2,0000.0,0006.72,0003.10,0002.47
2023-03-12 12:01:00,,0824.3,5.02,0.00,22.6,22.2,00.0,31.3,24.5,12.1,0000.0,0006.76,0003.03,0002.45
2023-03-12 12:02:00,,0824.3,4.99,0.00,22.7,23.1,00.0,31.3,24.7,12.0,0000.0,0006.80,0003.06,0002.45
2023-03-12 12:03:00,,0824.3,5.03,0.00,22.8,22.9,00.0,31.3,24.7,12.0,0000.0,0006.86,0003.11,0002.46
2023-03-12 12:04:00,,0824.3,4.97,0.00,22.8,22.5,00.0,31.4,24.6,11.9,0000.0,0006.67,0003.05,0002.46
2023-03-12 12:05:00,,0824.3,5.01,0.00,22.8,22.2,00.0,31.4,24.6,11.9,0000.0,0006.53,0002.99,0002.44
2023-03-12 12:06:00,,0824.2,4.99,0.00,22.8,21.9,00.0,31.4,24.6,11.9,0000.0,0006.83,0002.97,0002.43
2023-03-12 12:07:00,,0824.2,5.00,0.00,22.7,21.6,00.0,31.4,24.5,11.8,0000.0,0007.69,0002.95,0002.41
2023-03-12 12:08:00,,0824.3,5.01,0.00,22.7,21.4,00.0,31.4,24.4,11.8,0000.0,0007.73,0002.91,0002.38
2023-03-12 12:09:00,,0824.4,5.01,0.00,22.7,21.3,00.0,31.4,24.4,11.9,0000.0,0007.53,0002.85,0002.36
2023-03-12 12:10:00,,0824.4,4.99,0.00,22.7,21.1,00.0,31.4,24.4,11.9,0000.0,0007.12,0002.84,0002.35
2023-03-12 12:11:00,,0824.5,4.99,0.00,22.6,21.0,00.0,31.4,24.3,11.8,0000.0,0006.92,0002.84,0002.34
2023-03-12 12:12:00,,0824.4,4.99,0.00,22.6,20.9,00.0,31.4,24.2,11.8,0000.0,0006.71,0002.90,0002.33
2023-03-12 12:13:00,,0824.4,5.00,0.00,22.6,20.8,00.0,31.4,24.2,11.9,0000.0,0007.11,0002.84,0002.31
2023-03-12 12:14:00,,0824.4,5.01,0.00,22.6,20.8,00.0,31.4,24.2,11.9,0000.0,0007.40,0002.83,0002.30
2023-03-12 12:15:00,,0824.4,5.00,0.00,22.5,20.8,00.0,31.3,24.2,12.0,0000.0,0007.52,0002.93,0002.31
2023-03-12 12:16:00,,0824.5,5.00,0.00,22.5,20.7,00.0,31.3,24.2,12.0,0000.0,0007.68,0003.03,0002.33
2023-03-12 12:17:00,,0824.5,5.00,0.00,22.5,20.7,00.0,31.3,24.2,12.1,0000.0,0007.35,0003.06,0002.35
2023-03-12 12:18:00,,0824.4,5.00,0.00,22.5,20.7,00.0,31.3,24.2,12.1,0000.0,0006.95,0003.08,0002.38
2023-03-12 12:19:00,,0824.5,4.99,0.00,22.4,20.7,00.0,31.3,24.2,12.2,0000.0,0007.39,0003.11,0002.41
2023-03-12 12:20:00,,0824.4,5.01,0.00,22.5,21.4,00.0,31.2,24.3,12.2,0000.0,0007.59,0003.14,0002.45
2023-03-12 12:21:00,,0824.5,4.99,0.00,22.6,22.4,00.0,31.2,24.5,12.2,0000.0,0007.83,0003.14,0002.47
2023-03-12 12:22:00,,0824.5,5.00,0.00,22.7,23.1,00.0,31.3,24.7,12.1,0000.0,0007.82,0003.14,0002.50
2023-03-12 12:23:00,,0824.4,4.99,0.00,22.7,22.7,00.0,31.3,24.7,12.1,0000.0,0007.78,0003.11,0002.51
2023-03-12 12:24:00,,0824.4,5.00,0.00,22.7,22.3,00.0,31.3,24.6,12.1,0000.0,0007.50,0003.13,0002.54
2023-03-12 12:25:00,,0824.5,5.00,0.00,22.7,22.0,00.0,31.3,24.6,12.1,0000.0,0007.46,0003.12,0002.57
2023-03-12 12:26:00,,0824.5,5.01,0.00,22.7,21.8,00.0,31.4,24.5,12.1,0000.0,0007.56,0003.12,0002.59
2023-03-12 12:27:00,,0824.4,4.98,0.00,22.7,21.5,00.0,31.4,24.5,12.1,0000.0,0007.53,0003.13,0002.62
2023-03-12 12:28:00,,0824.4,5.00,0.00,22.7,21.4,00.0,31.4,24.4,12.2,0000.0,0008.13,0003.15,0002.63
2023-03-12 12:29:00,,0824.4,5.00,0.00,22.7,21.3,00.0,31.4,24.4,12.2,0000.0,0008.05,0003.15,0002.64
2023-03-12 12:30:00,,0824.4,4.99,0.00,22.7,21.2,00.0,31.4,24.4,12.2,0000.0,0007.95,0003.15,0002.64
2023-03-12 12:31:00,,0824.4,4.99,0.00,22.6,21.1,00.0,31.4,24.4,12.2,0000.0,0007.98,0003.15,0002.63
2023-03-12 12:32:00,,0824.4,5.01,0.00,22.6,21.1,00.0,31.4,24.4,12.2,0000.0,0007.77,0003.15,0002.63
2023-03-12 12:33:00,,0824.4,4.99,0.00,22.6,21.0,00.0,31.3,24.3,12.2,0000.0,0007.90,0003.17,0002.65
2023-03-12 12:34:00,,0824.4,5.00,0.00,22.6,20.9,00.0,31.3,24.3,12.2,0000.0,0007.91,0003.19,0002.67
2023-03-12 12:35:00,,0824.4,4.99,0.00,22.6,20.9,00.0,31.3,24.3,12.3,0000.0,0007.87,0003.19,0002.69
2023-03-12 12:36:00,,0824.4,5.01,0.00,22.5,20.9,00.0,31.3,24.3,12.3,0000.0,0007.91,0003.22,0002.69
2023-03-12 12:37:00,,0824.4,5.00,0.00,22.5,20.8,00.0,31.3,24.2,12.3,0000.0,0007.62,0003.20,0002.68
2023-03-12 12:38:00,,0824.4,5.01,0.00,22.5,20.8,00.0,31.3,24.2,12.3,0000.0,0007.67,0003.16,0002.67
2023-03-12 12:39:00,,0824.4,5.01,0.00,22.5,20.8,00.0,31.3,24.2,12.3,0000.0,0007.21,0003.14,0002.67
2023-03-12 12:40:00,,0824.4,5.00,0.00,22.5,20.8,00.0,31.3,24.2,12.3,0000.0,0006.64,0003.16,0002.69
2023-03-12 12:41:00,,0824.5,5.01,0.00,22.5,21.1,00.0,31.2,24.2,12.3,0000.0,0006.42,0003.16,0002.71
2023-03-12 12:42:00,,0824.4,4.99,0.00,22.6,22.1,00.0,31.2,24.5,12.3,0000.0,0005.85,0003.20,0002.73
2023-03-12 12:43:00,,0824.5,4.98,0.00,22.7,22.9,00.0,31.2,24.7,12.2,0000.0,0005.71,0003.18,0002.74
2023-03-12 12:44:00,,0824.5,5.01,0.00,22.7,22.9,00.0,31.3,24.7,12.1,0000.0,0004.83,0003.18,0002.74
2023-03-12 12:45:00,,0824.6,4.98,0.00,22.7,22.4,00.0,31.3,24.6,12.1,0000.0,0004.68,0003.18,0002.74
2023-03-12 12:46:00,,0824.5,5.01,0.00,22.7,22.1,00.0,31.3,24.6,12.1,0000.0,0004.72,0003.19,0002.75
2023-03-12 12:47:00,,0824.7,5.00,0.00,22.7,21.8,00.0,31.3,24.5,12.1,0000.0,0004.71,0003.19,0002.78
2023-03-12 12:48:00,,0824.7,5.00,0.00,22.7,21.6,00.0,31.4,24.5,12.1,0000.0,0004.66,0003.20,0002.80
2023-03-12 12:49:00,,0824.7,5.01,0.00,22.7,21.4,00.0,31.4,24.4,12.1,0000.0,0004.55,0003.22,0002.83
2023-03-12 12:50:00,,0824.9,5.00,0.00,22.7,21.2,00.0,31.4,24.4,12.1,0000.0,0004.57,0003.24,0002.85
2023-03-12 12:51:00,,0824.8,5.00,0.00,22.6,21.1,00.0,31.3,24.4,12.2,0000.0,0004.54,0003.23,0002.84
2023-03-12 12:52:00,,0824.7,4.99,0.00,22.6,21.1,00.0,31.3,24.4,12.2,0000.0,0004.47,0003.22,0002.84
2023-03-12 12:53:00,,0824.9,4.99,0.00,22.6,21.0,00.0,31.3,24.3,12.2,0000.0,0004.38,0003.20,0002.85
2023-03-12 12:54:00,,0824.9,5.00,0.00,22.6,21.0,00.0,31.3,24.3,12.2,0000.0,0006.02,0003.21,0002.86
2023-03-12 12:55:00,,0824.6,5.00,0.00,22.6,20.9,00.0,31.3,24.3,12.3,0000.0,0006.06,0003.21,0002.87
2023-03-12 12:56:00,,0824.7,5.01,0.00,22.5,20.9,00.0,31.3,24.3,12.3,0000.0,0006.21,0003.24,0002.90
2023-03-12 12:57:00,,0824.6,5.00,0.00,22.5,20.9,00.0,31.3,24.3,12.3,0000.0,0006.23,0003.25,0002.91
2023-03-12 12:58:00,,0824.6,5.00,0.00,22.5,20.8,00.0,31.3,24.2,12.3,0000.0,0006.28,0003.27,0002.93
2023-03-12 12:59:00,,0824.7,5.01,0.00,22.5,20.8,00.0,31.3,24.2,12.3,0000.0,0006.45,0003.29,0002.93
